Everett, WA

1:12 AM PST on December 16, 2017 (GMT -0800)
Snohomish County

Weather History for KPAE - March, 2014

Change the Weather History Date:

Monday, March 31, 2014

  Actual Average Record
Temperature  
Mean Temperature 47 °F -  
Max Temperature 55 °F 56 °F 70 °F (1969)
Min Temperature 39 °F 38 °F 30 °F (1949)
Degree Days  
Heating Degree Days 18    
Moisture  
Dew Point 37 °F    
Average Humidity 71    
Maximum Humidity 86    
Minimum Humidity 53    
Precipitation  
Precipitation 0.00 in - - ()
Sea Level Pressure  
Sea Level Pressure 29.85 in    
Wind  
Wind Speed 6 mph (NNE)    
Max Wind Speed 12 mph    
Max Gust Speed -    
Visibility 10 miles    
Events      
Averages and records for this station are not official NWS values.
T = Trace of Precipitation, MM = Missing Value Source: NWS Daily Summary

Daily Weather History Graph

Daily Weather History Graph

Search for Another Location

Airport or City:

Trip Planner

Search our weather history database for the weather conditions in past years. The results will help you decide how hot, cold, wet, or windy it might be!

Date:

Astronomy

Mar. 31, 2014 Rise Set
Actual Time 6:49 AM PDT 7:37 PM PDT
Civil Twilight 6:18 AM PDT 8:09 PM PDT
Nautical Twilight 5:40 AM PDT 8:46 PM PDT
Astronomical Twilight 5:01 AM PDT 9:26 PM PDT
Moon 7:11 AM PDT (3/31) 9:09 PM PDT (3/31)
Length of Visible Light 13h 51m
Length of Day
12h 48m
New Moon, 1% of the Moon is Illuminated
Mar 31
New Moon
Apr 7
First Quarter
Apr 15
Full
Apr 22
Last Quarter
Apr 28
New

Hourly Weather History & Observations

Time (PDT) Temp. Windchill Dew Point Humidity Pressure Visibility Wind Dir Wind Speed Gust Speed Precip Events Conditions
12:53 AM 42.1 °F 39.2 °F 37.0 °F 82% 29.99 in 10.0 mi East 4.6 mph - N/A   Clear
1:53 AM 41.0 °F 36.4 °F 37.0 °F 86% 29.99 in 10.0 mi ESE 6.9 mph - N/A   Clear
2:53 AM 41.0 °F 37.1 °F 36.0 °F 82% 29.97 in 10.0 mi ESE 5.8 mph - N/A   Clear
3:53 AM 39.9 °F 35.8 °F 35.1 °F 83% 29.95 in 10.0 mi ESE 5.8 mph - N/A   Clear
4:53 AM 39.0 °F 36.8 °F 35.1 °F 86% 29.94 in 10.0 mi ENE 3.5 mph - N/A   Clear
5:53 AM 39.9 °F 35.8 °F 35.1 °F 83% 29.92 in 10.0 mi East 5.8 mph - N/A   Clear
6:53 AM 39.0 °F 35.7 °F 35.1 °F 86% 29.91 in 10.0 mi NE 4.6 mph - N/A   Clear
7:53 AM 39.9 °F 37.8 °F 34.0 °F 79% 29.91 in 10.0 mi East 3.5 mph - N/A   Clear
8:53 AM 44.1 °F 40.8 °F 35.1 °F 71% 29.90 in 10.0 mi Variable 5.8 mph - N/A   Clear
9:53 AM 46.0 °F 43.1 °F 33.1 °F 61% 29.89 in 10.0 mi East 5.8 mph - N/A   Clear
10:53 AM 46.9 °F - 37.9 °F 71% 29.88 in 10.0 mi NNE 6.9 mph - N/A   Clear
11:53 AM 48.9 °F - 36.0 °F 61% 29.87 in 10.0 mi NNE 4.6 mph - N/A   Clear
12:53 PM 50.0 °F - 37.0 °F 61% 29.85 in 10.0 mi NW 5.8 mph - N/A   Clear
1:53 PM 53.1 °F - 39.0 °F 59% 29.82 in 10.0 mi North 6.9 mph - N/A   Clear
2:53 PM 54.0 °F - 37.9 °F 55% 29.80 in 10.0 mi North 8.1 mph - N/A   Clear
3:53 PM 55.9 °F - 39.0 °F 53% 29.78 in 10.0 mi North 11.5 mph - N/A   Clear
4:53 PM 55.0 °F - 37.9 °F 53% 29.76 in 10.0 mi North 11.5 mph - N/A   Clear
5:53 PM 55.0 °F - 39.0 °F 55% 29.75 in 10.0 mi North 8.1 mph - N/A   Clear
6:53 PM 52.0 °F - 39.0 °F 61% 29.75 in 10.0 mi North 8.1 mph - N/A   Mostly Cloudy
7:53 PM 48.9 °F - 39.0 °F 69% 29.74 in 10.0 mi North 9.2 mph - N/A   Overcast
8:53 PM 48.9 °F - 39.9 °F 71% 29.75 in 10.0 mi North 8.1 mph - N/A   Overcast
9:53 PM 48.0 °F - 39.9 °F 74% 29.75 in 10.0 mi North 5.8 mph - N/A   Overcast
10:53 PM 46.0 °F 43.9 °F 39.9 °F 79% 29.74 in 10.0 mi North 4.6 mph - N/A   Overcast
11:53 PM 46.0 °F 42.5 °F 41.0 °F 83% 29.74 in 10.0 mi North 6.9 mph - N/A   Overcast